Cloud_Cover
12 8 8 0 0 0 0 0 0 8 8 8 8 8 32 92 92 92 92 92 92 88 76 76 68 64 64 64 68 80 88 88 92 92 92 92 80 76 68 64 48 36 24 24 24 24 24 24 20 12 8 0 0 0 0 8 8 8 8 8 12 20 24 32 44 56 68 76 76
12 8 0 0 0 0 0 0 0 0 0 8 8 8 32 88 92 92 92 92 92 92 92 92 88 88 88 88 88 88 92 92 92 92 92 92 80 76 68 64 48 32 20 20 20 20 24 24 12 8 8 8 8 8 8 8 8 12 20 12 20 24 24 36 48 64 68 68 76
12 8 0 0 0 0 0 0 0 0 8 8 8 36 68 92 92 92 92 92 92 92 92 92 92 92 92 92 92 92 92 92 92 92 92 92 92 80 68 56 44 32 20 20 20 24 32 24 20 12 12 12 12 12 12 12 20 24 24 24 36 36 44 44 56 68 68 64 68
12 8 8 8 8 12 12 8 8 8 12 44 56 80 92 92 92 92 92 92 92 92 92 92 92 92 92 92 92 92 92 92 92 92 92 92 92 80 64 48 44 36 32 32 24 32 32 36 32 24 20 20 20 20 20 24 36 44 44 48 56 64 64 64 68 68 68 64 68
12 8 8 12 12 20 20 20 20 44 76 76 88 92 92 92 92 92 92 92 92 92 92 92 92 92 92 92 92 92 92 92 92 88 88 88 76 68 56 56 44 36 36 36 36 36 44 44 36 32 32 32 32 32 32 32 44 48 48 64 64 64 64 64 68 68 68 64 64
20 20 12 12 24 24 24 20 64 88 92 92 92 92 92 92 92 92 92 92 92 92 92 92 92 92 92 92 92 92 88 88 88 88 88 80 68 64 56 48 48 56 56 48 44 48 48 44 36 36 36 44 44 44 44 48 56 56 64 68 68 68 68 64 68 68 68 64 64
32 32 24 12 12 44 80 92 92 92 92 92 92 92 92 92 92 92 92 92 92 92 92 92 92 92 92 92 92 92 88 88 88 80 80 68 64 56 56 64 64 64 64 56 56 56 48 44 44 36 36 44 48 48 48 56 56 48 48 56 56 64 64 56 56 64 64 56 56
36 36 32 20 32 68 92 92 92 92 92 92 92 92 88 76 88 92 92 92 92 92 92 92 92 92 92 92 92 88 88 80 76 76 68 64 56 48 48 56 64 68 68 68 64 48 44 36 36 36 36 44 48 48 48 48 48 44 44 48 56 56 56 48 48 56 56 48 56
20 24 24 20 76 92 92 92 92 92 92 92 92 80 76 80 92 92 92 92 92 92 92 92 92 92 92 88 88 88 88 80 68 64 56 48 44 44 44 44 44 48 48 48 44 36 32 32 32 36 36 44 44 44 48 48 44 36 36 36 44 48 48 56 48 48 48 48 48
20 20 32 48 80 92 92 92 92 92 92 92 80 80 88 92 92 92 92 92 92 92 92 92 92 88 88 88 88 88 88 76 64 56 48 44 44 36 36 36 36 36 36 36 32 24 24 24 24 24 32 32 36 36 36 36 32 32 32 32 36 36 44 48 48 44 44 44 44
20 32 56 76 80 88 92 92 92 92 92 92 92 92 92 92 92 92 92 92 92 92 88 88 88 88 88 88 88 88 80 80 64 48 44 44 44 36 36 32 32 32 24 24 20 20 20 20 20 20 20 20 20 20 24 32 24 24 24 24 32 32 36 36 44 36 32 24 32
20 44 76 92 88 80 76 80 88 92 92 92 92 92 92 92 92 92 92 88 88 88 88 88 88 88 88 88 80 80 76 68 56 48 44 36 36 32 32 32 24 24 24 20 20 20 24 24 20 20 12 12 12 12 12 12 12 12 12 12 20 20 20 24 24 24 20 12 12
20 56 88 92 80 76 76 80 88 92 92 92 92 92 92 92 92 92 88 88 88 88 88 88 88 88 80 80 76 68 64 56 48 44 44 36 32 32 24 24 24 20 20 24 24 24 32 24 20 20 20 12 12 12 8 0 0 0 0 0 0 8 8 8 8 0 0 0 0
20 56 88 92 80 76 76 88 92 92 92 92 92 92 92 92 92 92 88 88 88 88 88 88 88 80 76 76 68 68 64 56 56 48 36 36 32 24 24 24 20 20 24 32 32 24 24 24 20 20 12 12 8 8 0 0 0 0 0 0 0 0 0 0 0 0 0 0 0
24 64 88 80 76 76 80 92 92 92 92 92 92 92 92 92 92 88 88 88 88 88 88 88 80 80 76 76 76 68 68 64 56 48 36 36 32 24 24 24 24 24 24 32 24 20 20 12 12 8 0 0 0 0 0 0 0 0 0 0 0 0 0 0 0 0 0 0 0
36 68 88 80 80 80 88 92 92 92 92 92 92 92 92 92 88 88 88 88 88 88 88 80 76 76 68 68 68 68 68 64 56 48 44 36 32 24 24 32 32 32 32 20 12 8 8 0 0 0 0 0 0 0 0 0 0 0 0 0 0 0 0 0 0 0 0 0 0
64 80 88 88 88 92 92 92 92 92 92 92 92 92 92 92 88 88 88 88 88 88 80 80 68 68 68 68 64 64 64 56 48 44 44 36 32 32 32 36 36 36 24 8 0 0 0 0 0 0 0 0 0 0 0 0 0 0 0 0 0 0 0 0 0 0 0 0 0
88 92 88 92 92 92 92 92 92 92 92 92 92 92 88 88 88 88 88 88 88 80 80 76 64 64 64 64 56 48 48 44 44 44 36 36 36 36 36 36 32 20 12 0 0 0 0 0 0 0 0 0 0 0 0 0 0 0 0 0 0 0 0 0 0 0 0 0 0
92 92 92 92 92 92 92 92 92 92 92 92 92 92 88 88 88 88 80 80 80 76 76 68 64 64 56 56 48 48 48 48 36 36 44 44 44 36 32 24 12 8 0 0 0 0 0 0 0 0 0 0 0 0 0 0 0 0 0 0 0 0 0 0 0 0 0 8 12
92 92 92 92 92 92 88 88 92 92 92 92 92 88 88 88 80 80 80 76 76 68 68 68 64 64 56 48 48 44 44 44 36 36 36 36 32 20 12 8 0 0 0 0 0 0 0 0 0 0 0 0 0 0 0 0 0 0 0 0 0 0 0 12 12 12 12 20 24
92 92 92 92 92 88 80 88 92 92 92 92 88 88 88 88 88 80 80 76 76 76 76 76 68 64 64 56 44 36 32 36 36 36 36 32 20 8 0 0 0 0 0 0 0 0 0 0 0 0 0 0 0 0 0 0 0 0 0 0 8 12 24 56 56 64 64 64 68
92 92 92 92 92 88 80 88 88 88 88 88 88 88 88 88 80 80 76 80 80 80 80 76 68 64 56 44 36 32 32 32 36 36 24 20 12 8 0 0 0 0 0 0 0 0 0 0 0 0 0 0 0 0 0 0 12 12 12 20 20 24 48 88 88 88 88 88 88
92 92 92 92 92 92 88 88 88 88 88 88 92 92 92 80 76 68 68 80 80 88 88 80 68 56 44 32 32 36 36 36 32 24 20 12 12 12 8 0 0 0 0 0 0 0 0 0 0 0 0 0 0 0 0 0 0 8 12 24 48 44 36 64 56 64 68 68 64
92 92 92 92 92 92 92 92 88 88 92 92 92 92 88 76 68 68 76 76 80 76 76 68 56 44 36 32 36 36 36 24 20 20 20 12 12 12 8 0 0 0 0 0 0 0 0 0 0 8 20 24 20 8 0 0 0 0 0 8 12 12 8 8 8 8 12 12 12
92 92 92 92 92 92 92 88 88 92 92 92 92 88 80 76 76 76 76 76 76 68 68 64 44 36 36 44 44 32 24 20 20 20 12 12 12 8 0 0 0 0 0 0 0 0 0 0 0 20 44 44 44 36 36 32 24 36 48 32 20 20 24 24 20 20 20 20 8
92 92 92 92 92 88 88 88 92 92 92 92 92 88 88 88 88 88 76 68 64 56 56 44 48 48 48 44 24 20 20 20 12 12 12 8 0 0 0 0 0 0 0 0 0 0 0 0 12 44 68 48 44 32 44 80 80 80 88 80 80 80 76 56 56 68 76 76 76
92 92 92 92 88 88 80 80 88 92 92 92 88 88 92 92 92 80 68 56 48 44 44 48 48 44 36 20 20 20 12 12 12 8 8 0 0 0 0 0 0 0 0 0 0 0 0 0 0 0 20 64 32 12 8 12 64 80 88 88 88 88 88 80 80 88 88 88 68
92 92 92 88 88 88 88 92 92 92 92 92 92 92 92 92 88 76 64 56 48 48 48 48 44 32 20 20 12 12 12 8 8 0 0 0 0 0 0 0 0 0 0 0 0 0 0 0 0 0 0 0 0 0 8 24 68 88 88 88 88 88 88 88 88 88 80 56 56
92 92 88 88 88 88 92 92 92 92 92 92 92 92 88 88 76 68 64 56 48 48 48 48 32 20 20 12 12 12 8 8 0 0 0 0 0 0 0 0 0 0 0 0 0 0 0 0 0 0 0 0 0 0 0 0 56 80 88 88 88 88 88 88 64 68 88 80 88
88 88 88 88 92 92 92 92 92 92 92 92 92 88 80 76 68 64 64 56 56 44 32 24 24 20 20 12 12 8 8 8 0 0 0 0 0 0 0 0 0 0 0 0 0 0 0 0 0 0 0 0 0 0 0 0 64 80 88 88 80 80 68 32 68 80 76 56 64
92 92 92 92 92 92 92 92 92 92 92 92 88 76 68 64 64 64 64 48 44 32 32 24 24 20 20 12 12 8 8 0 0 0 0 0 0 0 0 0 0 0 0 0 0 0 0 0 0 0 0 0 0 0 0 0 0 44 80 80 80 80 80 80 64 68 88 88 88
92 92 92 92 92 92 92 92 92 92 88 80 76 68 64 64 56 56 48 56 36 32 24 24 20 20 20 12 8 0 0 0 0 0 0 0 0 0 0 0 0 0 0 0 0 0 0 0 0 0 0 0 0 0 0 0 8 36 80 80 80 80 80 88 88 88 88 88 88
80 88 92 92 88 88 92 92 92 88 76 76 68 64 56 48 44 48 48 48 36 32 24 20 20 20 12 8 0 0 0 0 0 0 0 0 0 0 0 0 0 0 0 0 0 0 0 0 0 0 0 0 0 8 12 36 56 68 80 80 80 80 88 88 88 88 80 88 88
88 88 88 88 88 88 92 92 80 80 88 80 76 64 48 48 44 44 44 36 36 32 24 20 20 12 8 0 0 0 0 0 0 0 0 0 0 0 0 0 0 0 0 0 0 0 0 0 0 0 0 8 36 48 56 56 64 76 80 80 80 88 88 92 88 80 76 88 88
76 76 88 92 92 92 92 92 88 80 80 68 68 64 56 64 48 44 36 36 32 24 20 12 12 8 0 0 0 0 0 0 0 0 0 0 0 0 0 0 0 0 0 0 0 0 0 0 0 0 12 56 68 68 68 80 80 80 76 80 80 88 88 92 80 68 64 88 88
88 92 92 92 92 88 80 88 80 80 76 68 68 64 64 56 48 44 36 32 24 20 12 8 0 0 0 0 0 0 0 0 0 0 0 0 0 0 0 0 0 0 0 0 0 0 0 0 0 0 8 36 68 80 80 80 76 68 68 88 80 80 80 80 88 76 68 88 92
92 92 92 92 92 88 88 88 80 76 76 68 68 64 56 44 36 32 24 20 12 8 8 0 0 0 0 0 0 0 0 0 0 0 0 0 0 0 0 0 0 0 0 0 0 0 0 0 0 0 0 20 64 76 76 80 88 88 88 88 88 76 68 80 80 80 80 76 80
88 88 92 92 92 92 92 80 80 76 68 64 64 48 36 32 24 20 12 8 8 0 0 0 0 0 0 0 0 0 0 0 0 0 0 0 0 0 0 0 0 0 0 0 0 0 0 0 0 0 0 12 68 88 80 76 88 88 88 88 88 80 80 80 76 68 56 56 68
80 88 88 88 92 92 88 80 76 68 64 64 44 32 24 20 12 8 8 0 0 0 0 0 0 0 0 0 0 0 0 0 0 0 0 0 0 0 0 0 0 0 0 0 0 0 0 0 0 0 0 0 64 88 88 88 88 88 88 88 88 80 76 80 88 76 64 64 76
80 88 92 92 92 88 80 76 68 64 56 36 24 20 12 8 8 0 0 0 0 0 0 0 0 0 0 0 0 0 0 0 0 0 0 0 0 0 0 0 0 0 0 0 0 0 0 0 0 0 0 20 64 80 88 88 88 88 80 80 80 80 76 68 80 88 88 88 92
88 88 92 88 88 80 76 68 64 48 32 20 20 12 8 0 0 0 0 0 0 0 0 0 0 0 0 0 0 0 0 0 0 0 0 0 0 0 0 0 0 8 12 0 0 0 0 0 0 8 24 64 76 88 88 88 88 80 80 80 88 88 80 68 80 88 88 92 88